This is the latest recevied weather packets stored in our database for station/object OE3APM-13. If no packets are shown the sender has not sent any weather packets the latest 10 day(s).
| Time | Temp. | Humidity | Pressure | Rain* | Wind** | Luminosity | Snow |
|---|---|---|---|---|---|---|---|
| 1777620150 | 11.67° C | 51% | 1029.1 hPa | 0 mm | - | 566 W/m² | - |
| 1777619849 | 11.67° C | 52% | 1029.1 hPa | 0 mm | - | 557 W/m² | - |
| 1777619548 | 11.11° C | 51% | 1029.1 hPa | 0 mm | - | 541 W/m² | - |
| 1777619250 | 11.11° C | 53% | 1029.1 hPa | 0 mm | - | 531 W/m² | - |
| 1777618949 | 10.56° C | 53% | 1029.1 hPa | 0 mm | - | 517 W/m² | - |
| 1777618649 | 10.56° C | 58% | 1029 hPa | 0 mm | - | 501 W/m² | - |
| 1777618351 | 10° C | 55% | 1029 hPa | 0 mm | - | 489 W/m² | - |
| 1777618050 | 9.44° C | 56% | 1029.1 hPa | 0 mm | - | 476 W/m² | - |
| 1777617749 | 9.44° C | 62% | 1029.1 hPa | 0 mm | - | 464 W/m² | - |
| 1777617449 | 8.89° C | 59% | 1029.1 hPa | 0 mm | - | 448 W/m² | - |
| 1777617149 | 8.89° C | 63% | 1029.1 hPa | 0 mm | - | 434 W/m² | - |
| 1777616850 | 8.33° C | 62% | 1029 hPa | 0 mm | - | 418 W/m² | - |
| 1777616550 | 7.78° C | 64% | 1029 hPa | 0 mm | - | 403 W/m² | - |
| 1777616249 | 7.78° C | 65% | 1028.9 hPa | 0 mm | - | 388 W/m² | - |
| 1777615950 | 7.22° C | 63% | 1028.9 hPa | 0 mm | - | 373 W/m² | - |
| 1777615649 | 6.67° C | 64% | 1028.9 hPa | 0 mm | - | 360 W/m² | - |
| 1777615350 | 6.11° C | 72% | 1028.9 hPa | 0 mm | - | 345 W/m² | - |
| 1777615049 | 5.56° C | 74% | 1028.8 hPa | 0 mm | - | 330 W/m² | - |
| 1777614753 | 5.56° C | 75% | 1028.8 hPa | 0 mm | - | 315 W/m² | - |
| 1777614451 | 5° C | 76% | 1028.9 hPa | 0 mm | - | 301 W/m² | - |
| 1777614132 | 4.44° C | 79% | 1028.9 hPa | 0 mm | - | 285 W/m² | - |
| 1777613835 | 3.33° C | 82% | 1028.9 hPa | 0 mm | - | 271 W/m² | - |
| 1777613524 | 2.22° C | 86% | 1028.9 hPa | 0 mm | - | 255 W/m² | - |
| 1777613222 | 1.67° C | 88% | 1028.9 hPa | 0 mm | - | 239 W/m² | - |
| 1777612916 | 1.11° C | 88% | 1028.9 hPa | 0 mm | - | 221 W/m² | - |
* Rain latest hour (hover to see other rain measurements)
** Current wind speed in m/s (hover to see current wind gust speed)